INMARSAT 3-F1

导读

INMARSAT 3-F1是国际海事卫星组织(INMARSAT)第三代海事卫星系统的首颗卫星,于1996年4月3日发射升空,定点于印度洋赤道上空。该卫星主要为海事及航空领域提供移动通信服务,曾在马航MH370失联事件中发挥关键作用——通过接收飞机发出的握手信号,结合多普勒效应分析,帮助推断出航班最终坠入南印度洋,为搜救提供了核心线索。

Basic Information
目录编号:
23839
目录名称:
INMARSAT 3-F1
国际标识:
1996-020A
轨道中心:
EARTH
卫星名称:
INMARSAT 3-F1
卫星全名:
--
卫星状态:
在轨 (已飞行11119 天)
发射日期:
1996-04-03 UTC
国别 :
(Inmarsat)
星等 :
--
This satellite is enrolled in the Space Conjunction Data Service (SCDS) and the current flight risk assessment level is: No High Risk
Orbit Information
数据来源 国际轨道数据 AOE轨道数据
星历时间 2026-09-11T23:40:57+0800
12小时前
查看轨道信息
2026-09-06T23:00:00+0800
5天前
查看轨道信息
半长轴 42240.477km 42240.984km
偏心率 0.0006788 0.0006342
轨道倾角 10.778° 10.768°
近地点辐角 147.829° 141.671°
升交点赤经 45.810° 45.860°
平近点角 208.399° 204.210°
近地点 35833.667km 35836.057km
远地点 35891.013km 35889.637km
周期 1439.968分钟 1439.994分钟
每日圈数 1.000022 1.000004
Detailed Information
使用方式:
暂无
2D Orbit Map
3D Orbit Map
Orbit Altitude Analysis Chart
Orbit Inclination Analysis Chart
Orbit Comprehensive Analysis Chart
View Comprehensive Chart
Miss Distance Evolution Trend with All Objects
Collision Probability Evolution Trend with All Objects